SCP
0 0 0 0 0 0 0 0 0 0 0 0 0 0 0 0 0 0 0 0 0 0 0 0 0 0 0 0 0 0 0 0 0 0 0 0 0 0 0 0 0 0 0
0 0 0 0 0 0 0 0 0 0 0 0 0 0 0 0 0 0 0 0 0 0 0 0 0 0 0 0 0 0 0 0 0 0 0 0 0 0 0 0 0 0 0
0 0 0 0 0 0 0 0 0 0 0 0 0 0 0 0 0 0 0 0 0 0 0 0 0 0 0 0 0 0 0 0 0 0 0 0 0 0 0 0 0 0 0
0 0 0 0 0 0 0 0 0 0 0 0 0 0 0 0 0 0 0 0 0 0 0 0 0 0 0 0 0 0 0 0 0 0 0 0 0 0 0 0 0 0 0
0 0 0 0 0 0 0 0 0 0 0 0 0 0 0 0 0 0 0 0 0 0 0 0 0 0 0 0 0 0 0 0 0 0 0 0 0 0 0 0 0 0 0
0 0 0 0 0 0 0 0 0 0 0 0 0 0 0 0 0 0 0 0 0 0 0 0 0 0 0 0 0 0 0 0 0 0 0 0 0 0 0 0 0 0 0
0 0 0 0 0 0 0 0 0 0 0 0 0 0 0 0 0 0 0 0 0 0 0 0 0 0 0 0 0 0 0 0 0 0 0 0 0 0 0 0 0 0 0
0 0 0 0 0 0 0 0 0 0 0 0 0 0 0 0 0 0 0 0 0 0 0 0 0 0 0 0 0 0 0 0 0 0 0 0 0 0 0 0 0 0 0
0 0 0 0 0 0 0 0 0 0 0 0 0 0 0 0 0 0 0 0 0 0 0 0 0 0 0 0 0 0 0 0 0 0 0 0 0 0 0 0 0 0 0
0 0 0 0 0 0 0 0 0 0 0 0 0 0 0 0 0 0 0 0 0 0 0 0 0 0 0 0 0 0 0 0 0 0 0 0 0 0 0 0 0 0 0
0 0 0 0 0 0 0 0 0 0 0 0 0 0 0 0 0 0 0 0 0 0 0 0 0 0 0 0 0 0 0 0 0 0 0 0 0 0 0 0 0 0 0
0 0 0 0 0 0 0 0 0 0 0 0 0 0 0 0 0 0 0 0 0 0 0 0 0 0 0 0 0 0 0 0 0 0 0 0 0 0 0 0 0 0 0
0 0 0 0 0 0 0 0 0 0 0 0 0 0 0 0 0 0 0 0 0 0 0 0 0 0 0 0 0 0 0 0 0 0 0 0 0 0 0 0 0 0 0
0 0 0 0 0 0 0 0 0 0 0 0 0 0 0 0 0 0 0 0 0 0 0 0 0 0 0 0 0 0 0 0 0 0 0 0 0 0 0 0 0 0 0
0 0 0 0 0 0 0 0 0 0 0 0 0 0 0 0 0 0 0 0 0 0 0 0 0 0 0 0 0 0 0 0 0 0 0 0 0 0 0 0 0 0 0
0 0 0 0 0 0 0 0 0 0 0 0 0 0 0 0 0 0 0 0 0 0 0 0 0 0 0 0 0 0 0 0 0 0 0 0 0 0 0 0 0 0 0
0 0 0 0 0 0 0 0 0 0 0 0 0 0 0 0 0 0 0 0 0 0 0 0 0 0 0 0 0 0 0 0 0 0 0 0 0 0 0 0 0 0 0
0 0 0 0 0 0 0 0 0 0 0 0 0 0 0 0 0 0 0 0 0 0 0 0 0 0 0 0 0 0 0 0 0 0 0 0 0 0 0 0 0 0 0
0 0 0 0 0 0 0 0 0 0 0 0 0 0 0 0 0 0 0 0 0 0 0 0 0 0 0 0 0 0 0 0 0 0 0 0 0 0 0 0 0 0 0
0 0 0 0 0 0 0 0 0 0 0 0 0 0 0 0 0 0 0 0 0 0 0 0 0 0 0 0 0 0 0 0 0 0 0 0 0 0 0 0 0 0 0
0 0 0 0 0 0 0 0 0 0 0 0 0 0 0 0 0 0 0 0 0 0 0 0 0 0 0 0 0 0 0 0 0 0 0 0 0 0 0 0 0 0 0
0 0 0 0 0 0 0 0 0 0 0 0 0 0 0 0 0 0 0 0 0 0 0 0 0 0 0 0 0 0 0 0 0 0 0 0 0 0 0 0 0 0 0
0 0 0 0 0 0 0 0 0 0 0 0 0 0 0 0 0 0 0 0 0 0 0 0 0 0 0 0 0 0 0 0 0 0 0 0 0 0 0 0 0 0 0
0 0 0 0 0 0 0 0 0 0 0 0 0 0 0 0 0 0 0 0 0 0 0 0 0 0 0 0 0 0 0 0 0 0 0 0 0 0 0 0 0 0 0
0 0 0 0 0 0 0 0 0 0 0 0 0 0 0 0 0 0 0 0 0 0 0 0 0 0 0 0 0 0 0 0 0 0 0 0 0 0 0 0 0 0 0
0 0 0 0 0 0 0 0 0 0 0 0 0 0 0 0 0 0 0 0 0 0 0 0 0 0 0 0 0 0 0 0 0 0 0 0 0 0 0 0 0 0 0
Wind_Speed
8 9 20 20 18 17 15 14 13 12 11 10 10 9 9 9 9 9 9 10 10 11 11 12 12 12 12 13 14 14 15 16 17 17 17 16 16 17 17 17 15 10 18
10 12 22 21 19 18 16 15 14 13 12 10 10 9 9 9 8 9 9 9 9 10 10 11 11 11 12 12 13 13 14 15 15 16 16 14 14 16 16 16 15 11 17
10 14 18 22 20 19 17 16 15 13 12 11 10 9 9 9 8 8 8 8 8 9 9 10 10 10 10 11 12 12 13 14 14 15 15 9 8 15 16 16 16 16 16
12 13 12 21 21 19 18 17 15 14 13 12 11 10 9 9 8 8 7 7 7 8 8 8 9 9 9 10 10 11 11 13 14 14 8 7 7 12 14 15 15 15 15
11 12 13 23 21 20 18 17 16 15 14 13 12 11 10 9 8 7 7 7 7 7 7 7 7 8 8 8 9 9 10 11 13 11 7 7 6 10 13 13 13 14 14
10 10 12 23 21 20 19 18 17 16 15 14 13 12 11 10 9 8 7 7 6 6 6 6 6 6 7 7 7 8 8 9 9 6 7 7 6 8 11 11 11 12 12
10 9 10 22 21 20 19 18 17 16 15 14 13 12 11 10 9 8 7 7 6 5 5 5 5 5 5 5 6 6 6 7 5 5 6 6 6 8 9 9 10 10 10
9 9 8 21 21 20 19 19 18 17 16 15 14 13 12 11 10 9 8 7 7 6 5 4 4 3 3 3 4 5 5 5 5 5 5 5 6 6 7 7 7 8 8
7 8 7 9 14 19 20 19 18 17 16 16 15 14 13 12 11 10 9 8 7 6 5 4 3 3 2 2 3 3 4 3 3 3 5 5 5 4 5 5 5 5 6
7 8 8 6 7 9 11 18 18 17 17 16 15 14 13 12 11 11 9 9 8 7 6 5 4 3 3 2 2 3 3 3 1 3 3 5 6 2 2 2 3 3 4
8 8 8 7 7 7 7 12 15 16 16 15 12 14 11 4 3 4 7 9 9 9 8 7 6 5 4 3 3 3 2 2 0 2 3 7 6 3 1 1 0 0 1
14 11 9 9 7 7 7 6 6 6 7 7 5 5 4 4 3 3 7 11 10 10 9 9 8 6 3 1 2 2 2 1 1 2 4 9 8 6 5 4 3 3 2
12 12 11 10 8 8 6 5 4 3 4 5 6 6 5 4 2 2 1 3 3 4 1 2 2 1 2 1 1 1 2 2 2 3 4 11 11 10 8 7 7 6 6
8 12 11 10 8 8 6 5 5 4 4 4 5 7 5 3 3 3 2 2 1 0 1 1 1 1 2 2 3 3 4 3 3 3 5 13 13 13 12 11 10 10 9
10 10 10 10 10 8 7 5 6 5 5 5 5 6 7 5 5 4 3 3 3 2 3 3 3 3 4 4 4 5 5 6 5 5 4 13 15 15 15 14 14 13 12
11 10 10 11 10 9 8 7 6 5 5 5 5 7 8 6 6 5 5 4 4 4 4 4 5 4 4 4 5 6 6 6 6 6 6 9 17 18 18 17 17 16 15
9 8 10 11 10 10 9 8 5 5 5 6 6 7 8 7 7 7 6 6 6 5 5 4 5 4 4 5 7 7 6 7 7 8 7 6 7 16 20 20 19 19 18
6 7 9 10 10 10 9 7 5 5 6 6 5 6 8 9 8 7 7 8 7 5 5 5 5 5 6 6 6 6 6 6 8 9 8 8 7 8 13 21 21 21 21
4 5 7 9 10 10 8 5 5 5 6 5 5 6 8 9 9 8 8 7 6 6 6 7 6 6 7 8 8 7 7 7 9 10 10 11 10 10 9 16 23 23 23
1 3 5 6 6 6 5 4 3 4 4 4 6 7 8 9 10 9 8 8 7 6 7 7 8 7 6 6 7 8 7 8 8 10 12 11 11 13 12 12 11 15 24
4 2 2 4 4 5 4 4 4 5 4 4 6 8 9 9 10 11 10 8 8 10 11 11 8 8 8 4 3 5 7 10 13 13 12 11 13 13 12 12 10 9 10
5 3 1 2 3 5 4 3 3 3 3 4 5 7 10 11 11 11 12 10 9 9 10 10 9 6 5 6 6 3 5 5 7 12 11 12 13 10 11 14 12 11 9
7 4 1 1 2 3 3 2 1 0 1 2 4 6 9 11 12 12 13 12 11 11 11 13 12 11 10 7 8 7 5 8 4 4 7 9 9 9 9 9 12 12 12
6 4 3 1 0 2 3 3 5 5 6 7 5 5 6 9 12 13 13 13 12 11 13 13 13 12 11 10 6 10 10 5 4 6 4 5 7 9 9 10 11 12 13
6 5 4 3 2 0 2 3 4 6 7 6 4 6 6 7 10 12 13 12 13 12 13 14 12 13 12 13 10 6 10 9 8 8 10 6 4 7 9 10 9 9 11
7 6 6 5 4 2 1 3 4 7 8 8 8 7 7 5 6 10 11 12 13 12 13 15 14 13 14 15 13 10 8 7 9 11 15 11 9 7 9 9 10 10 10
Wind_Direction
197 186 189 176 172 171 169 166 162 157 153 147 140 132 125 117 111 103 96 90 86 81 77 74 71 69 68 68 67 65 63 60 56 52 49 54 65 70 70 69 62 54 62
167 174 187 176 174 174 173 170 167 163 160 155 147 142 136 126 118 112 103 96 90 86 82 77 74 71 70 71 71 69 67 63 57 51 44 36 52 70 68 68 68 65 64
156 170 185 176 176 176 175 173 170 168 165 161 156 152 145 138 130 121 112 103 95 89 84 81 77 75 73 73 73 72 70 64 57 48 36 18 23 67 68 67 67 66 65
160 169 181 177 177 177 177 175 173 172 170 167 164 159 154 149 141 131 123 114 105 98 92 87 83 80 78 77 77 76 72 64 54 42 25 8 3 64 67 66 65 64 64
163 170 181 177 179 179 180 178 177 176 175 173 172 168 164 160 153 144 135 127 117 109 102 94 89 85 83 83 83 81 75 64 48 34 16 5 357 63 68 65 65 64 62
165 170 183 178 181 182 182 181 181 181 180 179 178 175 173 169 165 157 148 141 134 125 117 107 98 92 89 90 91 87 82 65 42 23 13 2 347 59 70 67 65 64 61
165 171 185 181 183 184 185 184 184 185 184 184 183 182 180 177 173 167 163 159 154 147 135 124 111 101 95 96 101 98 91 71 49 21 6 355 341 62 69 67 65 63 61
164 169 182 186 187 187 188 188 188 189 189 189 189 189 188 185 182 179 177 176 172 168 159 149 135 118 109 105 109 113 106 78 39 13 352 344 348 60 69 66 64 62 61
164 170 185 193 189 191 191 191 191 192 193 194 194 194 194 192 190 189 188 189 188 186 183 179 170 161 150 137 130 132 132 109 54 355 342 334 340 51 69 67 63 62 62
173 181 187 195 188 186 190 195 194 195 197 198 198 198 198 198 198 198 196 200 200 201 202 204 206 206 206 204 190 167 162 96 31 336 329 313 324 3 62 70 61 59 61
193 197 192 194 189 181 180 195 195 197 199 200 201 200 197 185 180 197 196 208 211 213 215 218 222 225 227 242 244 207 130 106 297 301 304 299 298 290 276 250 293 357 38
200 199 197 195 189 180 182 186 186 187 190 188 175 183 159 139 156 160 201 213 221 224 227 228 230 235 220 53 333 8 90 168 237 272 279 284 280 272 264 254 251 255 258
201 198 199 196 188 183 181 176 174 172 171 170 165 157 141 138 149 155 170 229 252 254 270 276 303 67 107 164 204 203 210 216 236 256 272 275 273 268 263 256 251 250 250
201 203 199 193 190 190 182 179 173 172 173 171 167 158 150 152 163 166 178 195 203 184 201 205 194 198 205 215 223 231 232 229 232 240 258 265 268 268 265 260 254 250 249
212 206 199 194 193 188 186 184 181 183 181 175 169 171 167 169 178 182 190 195 205 199 204 213 218 224 230 233 233 232 235 234 235 235 248 260 264 265 265 263 259 255 251
214 206 196 197 195 188 193 193 188 183 177 174 180 181 179 179 181 184 194 201 208 206 206 208 215 221 229 230 239 235 236 236 237 236 234 254 261 263 263 263 261 259 256
216 200 194 197 193 194 198 196 188 182 178 186 189 186 188 188 187 190 198 207 212 205 206 211 223 224 236 236 241 240 238 236 236 236 235 232 247 258 261 262 262 261 258
206 193 193 197 195 199 200 197 190 184 189 195 190 190 197 198 193 194 205 216 208 197 200 209 213 221 233 234 241 241 239 236 237 237 236 234 230 239 252 256 259 259 258
198 183 184 193 193 196 195 192 192 188 200 199 194 200 203 204 202 204 215 219 198 200 208 218 213 210 228 235 240 243 238 239 241 242 239 235 231 231 231 248 252 254 255
130 163 176 189 188 178 175 179 192 211 215 209 208 213 207 209 208 212 223 219 197 204 215 216 224 215 224 232 247 254 244 238 236 237 240 239 233 231 229 231 240 249 250
52 85 159 176 174 158 161 181 201 225 222 223 223 220 214 214 211 214 227 220 208 217 224 218 218 223 230 206 239 275 261 241 240 238 234 234 235 232 227 226 226 226 241
32 34 67 175 176 179 181 171 186 200 219 221 224 226 221 220 219 220 225 228 218 223 228 221 210 212 221 184 190 232 293 294 244 236 231 231 234 230 228 227 224 223 223
19 7 8 213 189 187 171 146 129 99 302 259 234 233 229 226 225 226 228 228 225 221 229 226 218 215 227 211 198 193 218 247 291 259 233 232 229 225 228 227 226 225 224
4 5 13 17 146 176 168 177 196 216 237 241 235 237 234 224 228 228 231 230 230 226 230 231 223 220 222 227 211 220 227 206 228 288 264 241 233 229 226 227 228 226 224
9 16 17 21 26 92 189 205 219 241 252 267 268 259 252 236 231 231 231 231 233 232 233 234 229 222 220 227 218 206 227 236 228 244 268 255 240 229 226 225 225 224 222
13 18 19 20 11 355 267 237 235 251 263 276 277 272 268 254 242 237 234 233 235 235 235 235 234 228 227 227 227 217 205 207 209 218 243 252 251 232 220 223 223 222 221